全球星 M090星 (GLOBALSTAR M090)

导读 | 星芒AI

GLOBALSTAR M090 是 Globalstar 公司部署的一颗低轨通信卫星,属于其第二代卫星星座(Globalstar 2)的一部分。该卫星运行在约 1414 公里的近地轨道,主要用于提供移动语音和数据通信服务,覆盖全球大部分地区。M090 卫星采用先进通信技术,支持手持终端和移动平台的连接,广泛应用于航空、航海及偏远地区通信。其设计寿命约为 15 年,是构建全球卫星通信网络的重要节点。

基本信息
目录编号:
38044
目录名称:
GLOBALSTAR M090
国际标识:
2011-080E
轨道中心:
EARTH
卫星名称:
全球星 M090星
卫星全名:
全球星 M090星 (GLOBALSTAR M090)
卫星状态:
在轨 (已飞行5054 天)
发射日期:
2011-12-28 UTC
国别 :
(GLOB)
星等 :
--
轨道信息
数据来源 国际轨道数据 AOE轨道数据
星历时间 2025-10-28T20:49:26+0800
18小时前
查看轨道信息
2025-10-25T05:00:00+0800
4天前
查看轨道信息
半长轴 7791.754km 7791.754km
偏心率 0.0000333 0.0000429
轨道倾角 52.013° 52.014°
近地点辐角 106.709° 89.641°
升交点赤经 313.514° 324.651°
平近点角 65.493° 5.925°
近地点 1413.359km 1413.284km
远地点 1413.879km 1413.954km
周期 114.081分钟 114.081分钟
每日圈数 12.622634 12.622632
详细信息
固有亮度:
5
最大亮度:
7.2
平衡模式:
三轴稳定
覆盖范围:
全球
运营商:
全球星公司
运营商所在国:
美国
使用方式:
暂无
卫星简介
全球星星座由48颗卫星加8颗备份星组成。这些卫星分布在8个倾角为52度的圆形轨道平面上,每个轨道平面6颗卫星,另有1 颗备用星。轨道高度约为1414km,传输时延和处理时延小于300ms,整个系统的覆盖区为南北纬70度以内的地区。该卫星仍在工作。
2D轨道图
3D轨道图
轨道高度分析图
轨道倾角分析图
轨道综合分析图
查看轨道综合分析图